Regional Weather Roundup
Issued by NWS Pendleton, OR

Home | Current Version | Previous Version | Text Only | Print | Product List | Glossary On
Versions: 1 2 3 4 5 6 7 8 9 10 11 12 13 14 15 16 17 18 19 20 21 22 23 24 25 26 27 28 29 30 31 32 33 34 35 36 37 38 39 40 41 42 43 44 45 46 47 48 49 50
000
ASUS46 KPDT 170810
RWRPDT
PENDLETON REGIONAL WEATHER ROUNDUP
NATIONAL WEATHER SERVICE PENDLETON OREGON
1200 AM PST TUE JAN 17 2017

NOTE: FAIR INDICATES FEW OR NO CLOUDS BELOW 12,000 FEET WITH NO
SIGNIFICANT WEATHER AND/OR OBSTRUCTIONS TO VISIBILITY.

# INDICATES UNOFFICIAL STATION AND DATA

WAZ520-170910-
EAST SLOPES OF WASHINGTON CASCADES

CITY            SKY/WX      TMP DP  RH  WIND    PRES   REMARKS
#CLE ELUM HS    N/A         16   8  70  CALM    30.13F
#CLE ELUM LAKE  N/A         10   8  91  CALM    30.32F
#GLENWOOD       N/A         12   9  87  CALM    30.35F
#NELSON 3SW     N/A         10   8  91  CALM    30.56F
#NILE           N/A          9   6  87  CALM    29.57S
#RONALD 2NW     N/A         14  N/A N/A CALM    29.96F
#TEANAWAY 4NE   N/A         12   9  87  CALM    N/A
#TROUT LAKE 1NE N/A         13  10  87  CALM    30.35F
#TROUT LAKE 1E  N/A         12   9  87  CALM    30.20F
$$

WAZ521-170910-
SIMCOE HIGHLANDS

CITY            SKY/WX      TMP DP  RH  WIND    PRES   REMARKS
#CENTERVILLE 1SWN/A          6   2  83  CALM    30.35F
#GOLDENDALE 1NE N/A          6  -4  62  N1      N/A
#GOLDENDALE 4W  N/A          7  -20 27  CALM    30.23F
#GOODNOE HILLS  N/A          8   0  69  N2      N/A
#LYLE 6NE       N/A         11   9  91  CALM    30.34S
#PITT 4SE       N/A          7   5  91  CALM    30.40F
$$

WAZ026-170910-
KITTITAS VALLEY

CITY            SKY/WX      TMP DP  RH  WIND    PRES   REMARKS
ELLENSBURG AP   CLOUDY      14   8  76  W3      30.20F
#ELLENSBURG CWU N/A         13   9  84  E1      30.30F
#ELLENSBURG 3NE N/A         13   9  84  CALM    28.28S
#ELLENSBURG 1E  N/A         12  N/A N/A CALM    N/A
#KITTITAS 4N    N/A         14   8  76  CALM    30.20F
#KITTITAS 3S    N/A         12   9  87  NE2     30.35F
#THORP 6N       N/A         10   8  91  CALM    30.39S
$$

WAZ027-170910-
YAKIMA VALLEY

CITY            SKY/WX      TMP DP  RH  WIND    PRES   REMARKS
YAKIMA AIRPORT  CLOUDY      15  10  80  CALM    30.28F HAZE
YAKIMA-VAGABOND CLOUDY      12   8  84  CALM    30.22F FOG
#MABTON         N/A         11   8  87  CALM    30.31F
#NACHES 2SW     N/A         11   9  91  CALM    30.20F
#TERRACE HTS    N/A         12   9  87  CALM    30.35F
#TOPPENISH      N/A         11   8  87  CALM    30.30F
#WEST VALLEY    N/A         13  10  87  CALM    30.36F
#W YAKIMA       N/A         12   9  87  CALM    30.37F
#WHITE SWAN 5E  N/A         10   8  91  CALM    30.40F
#WILEY CITY 3W  N/A         12   6  76  CALM    30.20F
$$

WAZ028-170910-
LOWER COLUMBIA BASIN...WASHINGTON

CITY            SKY/WX      TMP DP  RH  WIND    PRES   REMARKS
HANFORD         CLOUDY       8   5  87  E3      30.31F
PASCO           MOCLDY       7   4  87  CALM    30.36F
PROSSER AWOS    N/A         10   9  96  CALM    30.35F
RICHLAND AWOS   CLOUDY      12  10  91  CALM    30.36F
#BENTON CITY    N/A         10   7  87  CALM    30.30F
#CONNELL 5N     N/A          6   3  87  E1      30.40S
#CONNELL 5NW    N/A          7   4  87  CALM    30.35F
#ELTOPIA 6NW    N/A          9   6  87  CALM    29.27F
#KAHLOTUS       N/A          5   2  87  CALM    30.39S
#KENNEWICK 3S   N/A          9   6  87  CALM    30.41F
#PATERSON       N/A          7   4  87  CALM    30.38F
#SAGEMOOR 2W    N/A          7   3  83  N1      30.24S
#TOUCHET 2S     N/A          0  -3  87  E5      30.40F
#WEST PASCO     N/A         11   7  83  CALM    30.38F
$$

WAZ029-170910-
FOOTHILLS OF THE BLUES...WASHINGTON

CITY            SKY/WX      TMP DP  RH  WIND    PRES   REMARKS
WALLA WALLA AP  PTCLDY       6   1  79  E5      30.26F
#CLYDE 6NW      N/A          3   0  87  CALM    30.37F
#DAYTON SCHOOL  N/A          3  -5  68  CALM    30.24F
#LOWDEN 2SE     N/A          0  -3  87  CALM    30.32F
#PLEASANT VIEW 1N/A          4   2  91  CALM    30.44F
#PRESCOTT       N/A          3   0  87  CALM    30.39F
#WHITMAN COLLEGEN/A          8   5  87  E1      30.44F
#WAITSBURG 5S   N/A          5   3  91  E3      30.49F
#WAITSBURG 8N   N/A          2  N/A N/A CALM    30.03F
#WALLA WALLA 5E N/A          4   1  87  NE1     N/A
#WALLA WALLA U  N/A          7   4  87  CALM    30.39F
#WHITMAN MISSIONN/A          2  -1  87  CALM    30.42F
$$

WAZ030-170910-
BLUE MOUNTAINS...WASHINGTON

CITY            SKY/WX      TMP DP  RH  WIND    PRES   REMARKS
#DIXIE 5SE      N/A         13  10  87  N7      29.99F
#SKI BLUEWOOD   N/A         22  18  84  CALM    30.06F
$$

ORZ009-041-WAZ024-170910-
COLUMBIA RIVER GORGE

CITY            SKY/WX      TMP DP  RH  WIND    PRES   REMARKS
HOOD RIVER AP   CLOUDY      16  10  77  NE3     30.31F
THE DALLES AP   MOCLDY      13   7  76  E5      30.36F
#ARLINGTON AIRPON/A          6   4  91  CALM    30.40F
#ARLINGTON HS   N/A          5   0  79  CALM    30.30F
#CELILO DOT     N/A         14   7  73  CALM    N/A
#LYLE           N/A         16  11  80  E8      30.39F
#MOSIER 1S      N/A         14  -2  48  CALM    30.27S
#MURDOCK        N/A         14  10  84  CALM    30.34F
#RUFUS DOT      N/A         11   7  83  S10     N/A
#SMITHVILLE     N/A         14  10  84  N1      30.32F

$$

ORZ510-170910-
NORTH CENTRAL OREGON

CITY            SKY/WX      TMP DP  RH  WIND    PRES   REMARKS
#ANTELOPE       N/A          4   0  83  CALM    30.26F
#CHENOWITH 1W   N/A          9   7  91  SE2     N/A
#COW CYN RST AREN/A         13  N/A N/A CALM    N/A
#DUFUR 9E       N/A          7   5  91  CALM    30.42F
#GRASS VALLEY 1SN/A          3   0  87  CALM    30.06F
#KENT DOT       N/A          5  -1  76  CALM    N/A
#MAUPIN SCHOOL  N/A          6   0  76  CALM    30.31F
#SHANIKO 5WSW   N/A         21  13  71  N7      N/A
#SHANIKO 4NW    N/A         22  15  74  SW2     30.04F
#TYGH VALLEY 2NEN/A          3  -1  83  CALM    30.40F
#WAPANITIA AIRPON/A          0  -3  87  CALM    30.42F
#WASCO DOT      N/A          6   2  83  SW14    N/A    WCI -11
#WASCO AIRPORT  N/A          7   4  87  E1      N/A
#WASCO 5NE      N/A          3   0  87  CALM    30.39F
$$

ORZ511-170910-
CENTRAL OREGON

CITY            SKY/WX      TMP DP  RH  WIND    PRES   REMARKS
BEND AIRPORT    PTCLDY      21  16  81  SE8     30.09F
MADRAS AIRPORT  PTCLDY       1  -2  87  CALM    30.17S
PRINEVILLE AP   PTCLDY      28  18  66  S10     30.10F
REDMOND AIRPORT PTCLDY      10   4  76  CALM    30.08F
#ASHWOOD SCHOOL N/A          8   4  83  CALM    30.07F
#BEND 1SW       N/A         29  24  81  SW2     N/A
#BEND-AWBREY    N/A         32  27  82  SW12    30.20F WCI 23
#BEND-KIM LN    N/A         14  12  92  CALM    30.27F
#CULVER         N/A          3   0  87  CALM    30.32F
#CULVER 8W      N/A          4  -6  62  CALM    30.08F
#MADRAS 4S      N/A          4  -21 29  CALM    30.19F
#POWELL BUTTE   N/A         36  14  40  SE13    30.01F WCI 27
#PRINEVILLE 3N  N/A         17  14  88  CALM    30.34F
#WARM SPRINGS   N/A          3   0  87  CALM    30.18F

$$


ORZ509-170910-
EAST SLOPES OF OREGON CASCADES

CITY            SKY/WX      TMP DP  RH  WIND    PRES   REMARKS
#CAMP SHERMAN   N/A         13   9  84  CALM    30.32F
#LA PINE 4NW    N/A         17  14  88  CALM    30.38F
#LAVA BUTTE DOT N/A         24  17  74  S1      N/A
#SISTERS ODOT   N/A         11  N/A N/A CALM    N/A
#SISTERS 3N     N/A          8   1  72  CALM    30.11S
#SUNRIVER       N/A         23  21  92  S2      30.07F
#SUTTLE LK DOT  N/A         12  12  100 SW29G43 N/A    WCI -9
#TUMALO 3W      N/A         26  24  92  CALM    30.12F
#WANOGA BUTTE D N/A         33  18  53  W7      N/A

$$

ORZ044-170910-
LOWER COLUMBIA BASIN...OREGON

CITY            SKY/WX      TMP DP  RH  WIND    PRES   REMARKS
HERMISTON       PTCLDY       2  -2  83  SE5     30.33F FOG
#BOARDMAN SCHOOLN/A          6   3  87  SE1     30.37F
#ECHO 8SW       N/A          2  -5  72  CALM    30.35F
#I-84 EX 198 DOTN/A          5   2  87  CALM    N/A
#UMATILLA       N/A          7   1  76  CALM    30.34S
$$

ORZ507-170910-
NORTHERN FOOTHILLS OF THE BLUES

CITY            SKY/WX      TMP DP  RH  WIND    PRES   REMARKS
PENDLETON AIRPT PTCLDY       1  -1  91  SE6     30.23F FOG
#ADAMS 3WNW     N/A          3   0  87  CALM    30.40F
#ATHENA         N/A          4   1  87  CALM    30.42F
#CAYUSE         N/A          6   3  87  NE1     30.38F
#HELIX SCHOOL   N/A          6   3  87  CALM    30.41F
#HELIX 3N       N/A          8   5  87  CALM    30.15F
#HOLDMAN 5SE    N/A          2  -1  87  SE3     30.23F
#HOLDMAN 6E     N/A          4   2  91  CALM    30.18F
#M-F GROVE ELEM N/A          6  -1  72  CALM    30.25F
#PENDLETON DNTN N/A          3  -8  59  CALM    30.27F
#PDT AQUATIC CTRN/A          2  -7  65  CALM    30.28S
#PDT SUNRIDGE   N/A          0  -3  87  CALM    30.30F
#PENDLETON 7NW  N/A          1  -4  79  SE5     30.38S
#PILOT ROCK 1S  N/A          2  -6  68  CALM    30.22F
#PILOT ROCK     N/A          5   0  79  SW5     30.20F
#TUTUILLA       N/A          0  -4  83  CALM    30.37F
#WESTON SCHOOL  N/A          5  -1  76  CALM    30.11F

$$

ORZ508-170910-
SOUTHERN FOOTHILLS OF THE BLUES

CITY            SKY/WX      TMP DP  RH  WIND    PRES   REMARKS
LEXINGTON       PTCLDY       3   0  87  CALM    30.24F
#AJAX           N/A          6  -5  60  CALM    27.91F
#CONDON SCHOOL  N/A          6   4  91  CALM    30.04F
#CONDON 5W      N/A         18  15  88  E1      30.01F
#FOSSIL SCHOOL  N/A          8   5  87  CALM    30.04F
#HEPPNER EOC    N/A          5   1  83  CALM    30.31F
#HEPPNER 4NE    N/A          6   3  87  CALM    30.39F
#LEXINGTON 2SE  N/A          4  -1  79  CALM    30.18F
#MIKKALO        N/A          4  -4  69  E1      30.32F
#OLEX 4N        N/A          4   1  87  CALM    30.24F
#RUGGS 5NE      N/A          9  -5  52  NE3     30.20F
#RUGGS 2SW      N/A          4   1  87  CALM    30.41F

$$

ORZ502-503-170910-
BLUE MOUNTAINS

CITY            SKY/WX      TMP DP  RH  WIND    PRES   REMARKS
MEACHAM         PTCLDY      17   8  67  CALM    30.10F
#BATTLE MTN DOT N/A         20  13  74  S12     N/A    WCI  8
#GREENHORN 9SW  N/A         12   7  80  E1      26.39F
#HEPPNER 15SE   N/A         36  19  50  SE1     30.20S
#LADD CYN SMT   N/A          7   3  83  SE14    N/A    WCI -10
#LADD CREEK ODOTN/A          9   3  76  SW14    N/A    WCI -7
#LONG CREEK HS  N/A         21  19  92  CALM    N/A
#N POWDER DOT   N/A         -4  -8  82  S1      N/A
#PIKES PEAK     N/A         27  20  74  CALM    27.99S
#TOLLGATE       N/A         19  15  84  NE1     29.91F
#TROY SCHOOL    N/A         13  10  87  CALM    30.33F
#UKIAH          N/A          3   1  91  CALM    30.40F
#WESTON 4E      N/A         21  17  84  E9      30.27F
$$

ORZ505-170910-
JOHN DAY BASIN

CITY            SKY/WX      TMP DP  RH  WIND    PRES   REMARKS
JOHN DAY        PTCLDY      30  19  63  E9      30.14F
#JOHN DAY KJDY  N/A         19  N/A N/A NE2     31.04R
#ANTELOPE 9ESE  N/A          5   1  83  CALM    N/A
#DAYVILLE SCHOOLN/A         22  16  77  SE1     30.13S
#MITCHELL       N/A          9   6  87  CALM    30.27F
#MITCHELL 8NW   N/A         21  17  84  SW1     30.10F
#MONUMENT HS    N/A          7   2  79  CALM    30.29F
#MT. VERNON 5SE N/A         33  20  58  SE5     30.07F
#SPRAY SCHOOL   N/A          4  N/A N/A CALM    N/A
$$

ORZ506-170910-
OCHOCO AND JOHN DAY HIGHLANDS

CITY            SKY/WX      TMP DP  RH  WIND    PRES   REMARKS
#HORSE RIDGE DO N/A         25  15  65  SE16    N/A    WCI 12
#KEYES SMT DOT  N/A         26  18  71  E5      N/A
#PAULINA SCHOOL N/A          5   2  87  NE1     N/A
#PINE MTN OBS   N/A         40  11  30  SE13    N/A    WCI 32
#PRAIRIE CITY   N/A         17   7  64  CALM    30.32F
#SENECA         N/A         -3  N/A N/A CALM    N/A
#SENECA 9NW     N/A          8   6  91  CALM    30.55F
$$

ORZ049-170910-
GRANDE RONDE VALLEY

CITY            SKY/WX      TMP DP  RH  WIND    PRES   REMARKS
LA GRANDE       PTCLDY      18   9  67  S25G32  30.22F WCI -
#COVE           N/A          5   1  83  CALM    30.27F
#COVE 6NW       N/A         11   7  83  E2      30.55F
#ELGIN 3N       N/A          9  -4  55  CALM    30.20F
#ELGIN 1E       N/A         12   6  76  SE2     N/A
#IMBLER SCHOOL  N/A         11   7  83  SE14G26 30.19F WCI -5
#ISLAND CITY 4N N/A         27  25  92  CALM    30.08S
#LADD CYN DOT   N/A         12   6  76  S33     N/A    WCI -10
#UNION 1S       N/A         11   6  80  SE25G35 30.56F WCI -9
$$

ORZ050-170910-
WALLOWA COUNTY

CITY            SKY/WX      TMP DP  RH  WIND    PRES   REMARKS
JOSEPH AIRPORT  PTCLDY       3  -2  79  S5      30.16F
#IMNAHA SCHOOL  N/A         14  12  92  NW3     30.24F
#IMNAHA 10S     N/A         15  12  88  CALM    30.17F
#JOSEPH 3N      N/A         -3  -12 64  CALM    30.17F
#JOSEPH 3W      N/A          7   0  72  CALM    30.17R
#LOSTINE        N/A         -1  -4  87  CALM    30.39F
#LOSTINE 3SE    N/A          0  -3  87  CALM    30.26F
#MT HOWARD 8000 N/A         38  11  32  CALM    30.08S
#PROMISE 1S     N/A         12   8  84  NW1     30.51F
#WALLOWA SCHOOL N/A         -4  -7  86  CALM    30.21F



$$



USA.gov is the U.S. government's official web portal to all federal, state and local government web resources and services.